TimeEST,TemperatureF,Dew PointF,Humidity,Sea Level PressureIn,VisibilityMPH,Wind Direction,Wind SpeedMPH,Gust SpeedMPH,PrecipitationIn,Events,Conditions,WindDirDegrees,DateUTC
12:53 AM,53.1,45.0,74,30.07,10.0,SW,4.6,-,N/A,,Clear,220,2013-01-29 05:53:00
1:53 AM,52.0,44.1,74,30.07,10.0,Variable,3.5,-,N/A,,Mostly Cloudy,0,2013-01-29 06:53:00
2:53 AM,54.0,45.0,72,30.08,10.0,SSW,9.2,-,N/A,,Clear,200,2013-01-29 07:53:00
3:53 AM,55.9,46.9,72,30.07,10.0,Variable,4.6,-,N/A,,Clear,0,2013-01-29 08:53:00
4:53 AM,48.9,43.0,80,30.07,10.0,WSW,3.5,-,N/A,,Clear,240,2013-01-29 09:53:00
5:53 AM,48.9,44.1,83,30.08,10.0,Variable,4.6,-,N/A,,Mostly Cloudy,0,2013-01-29 10:53:00
6:53 AM,44.1,41.0,89,30.10,10.0,South,6.9,-,N/A,,Clear,170,2013-01-29 11:53:00
7:53 AM,46.0,42.1,86,30.10,8.0,South,4.6,-,N/A,,Clear,170,2013-01-29 12:53:00
8:53 AM,50.0,44.1,80,30.12,10.0,SE,5.8,-,N/A,,Clear,140,2013-01-29 13:53:00
9:53 AM,62.1,50.0,65,30.11,10.0,SW,4.6,-,N/A,,Clear,230,2013-01-29 14:53:00
10:53 AM,63.0,48.0,58,30.11,10.0,South,12.7,-,N/A,,Clear,180,2013-01-29 15:53:00
11:53 AM,69.1,51.1,53,30.09,10.0,South,11.5,-,N/A,,Clear,190,2013-01-29 16:53:00
12:53 PM,70.0,51.1,51,30.04,10.0,South,8.1,-,N/A,,Clear,190,2013-01-29 17:53:00
1:53 PM,72.0,52.0,49,30.02,10.0,South,8.1,-,N/A,,Clear,170,2013-01-29 18:53:00
2:53 PM,73.0,52.0,48,30.01,10.0,South,11.5,-,N/A,,Clear,190,2013-01-29 19:53:00
3:53 PM,72.0,51.1,48,30.01,10.0,South,11.5,-,N/A,,Clear,190,2013-01-29 20:53:00
4:53 PM,69.1,50.0,51,30.01,10.0,SSW,13.8,-,N/A,,Clear,200,2013-01-29 21:53:00
5:53 PM,64.0,48.0,56,30.00,10.0,SSW,13.8,-,N/A,,Clear,200,2013-01-29 22:53:00
6:53 PM,64.9,48.0,54,30.00,10.0,SSW,11.5,-,N/A,,Clear,200,2013-01-29 23:53:00
7:53 PM,62.1,46.9,58,30.00,10.0,SSW,11.5,-,N/A,,Clear,200,2013-01-30 00:53:00
8:53 PM,57.9,46.9,67,30.01,10.0,South,11.5,-,N/A,,Clear,190,2013-01-30 01:53:00
9:53 PM,59.0,46.9,64,30.01,10.0,South,9.2,-,N/A,,Clear,190,2013-01-30 02:53:00
10:53 PM,57.9,46.9,67,29.99,10.0,SW,13.8,-,N/A,,Partly Cloudy,220,2013-01-30 03:53:00
11:53 PM,57.0,48.0,72,29.96,10.0,SSW,6.9,-,N/A,,Clear,200,2013-01-30 04:53:00